KG1ZR Weather Reports


time (UTC)temp
F
wind
direction
speed
knots
gust
knots
rain 1hr
in
rain 24hr
in
rain mn
in
humidity
%
barometer
mb
20260509051439 34 250 0.0 4.3 0.00 0.00 0.00 80 1011.7
20260509050438 34 250 2.6 4.3 0.00 0.00 0.00 80 1011.7
20260509045438 34 271 0.9 2.6 0.00 0.00 0.00 80 1011.6
20260509044438 35 304 0.0 0.0 0.00 0.00 0.00 79 1011.5
20260509043438 35 304 0.0 0.9 0.00 0.00 0.00 80 1011.4
20260509042438 35 304 0.0 0.0 0.00 0.00 0.00 80 1011.3
20260509041441 35 304 0.0 0.9 0.00 0.00 0.00 80 1011.2
20260509040438 35 304 0.0 0.9 0.00 0.00 0.00 80 1011.1
20260509035435 35 304 0.0 0.0 0.00 0.00 0.00 80 1011.0
20260509034916 35 304 0.0 0.0 0.00 0.00 0.00 80 1010.9
20260509033435 35 304 0.0 0.0 0.00 0.00 0.00 80 1010.8
20260509032918 35 304 0.0 0.0 0.00 0.00 0.00 80 1010.8
20260509031435 35 304 0.0 0.0 0.00 0.00 0.00 80 1010.6
20260509030435 36 304 0.0 0.0 0.00 0.00 0.00 80 1010.5
20260509025435 36 304 0.0 0.0 0.00 0.00 0.00 80 1010.5
20260509024435 37 304 0.0 0.0 0.00 0.00 0.00 79 1010.4
20260509023436 37 304 0.0 0.0 0.00 0.00 0.00 79 1010.3
20260509022433 37 304 0.0 0.0 0.00 0.00 0.00 79 1010.1
20260509021918 37 304 0.0 0.0 0.00 0.00 0.00 79 1010.1
20260509020432 38 304 0.0 0.0 0.00 0.00 0.00 79 1010.0
20260509015433 38 304 0.0 0.0 0.00 0.00 0.00 79 1010.0
20260509014433 38 304 0.0 0.0 0.00 0.00 0.00 78 1009.8
20260509013918 39 304 0.0 0.0 0.00 0.00 0.00 77 1009.7
20260509012919 39 304 0.0 0.0 0.00 0.00 0.00 77 1009.5
20260509011433 40 304 0.0 0.9 0.00 0.00 0.00 76 1009.5
20260509010430 41 304 0.0 0.9 0.00 0.00 0.00 74 1009.3
20260509005431 42 304 0.0 0.9 0.00 0.00 0.00 72 1009.2
20260509004431 42 304 0.0 0.0 0.00 0.00 0.00 70 1009.0
20260509003430 44 304 0.0 0.0 0.00 0.00 0.00 68 1008.9
20260509002431 44 304 0.0 0.0 0.00 0.00 0.00 66 1008.7
20260509001430 46 304 0.0 0.0 0.00 0.00 0.00 64 1008.7
20260509000429 46 304 0.0 0.0 0.00 0.00 0.00 62 1008.6
20260508235429 47 304 0.0 0.0 0.00 0.00 0.00 62 1008.4
20260508234429 47 304 0.0 0.0 0.00 0.00 0.00 61 1008.3
20260508233913 48 304 0.0 0.0 0.00 0.00 0.00 60 1008.2
20260508232429 49 304 0.0 2.6 0.00 0.00 0.00 56 1008.1
20260508231429 49 304 0.0 2.6 0.00 0.00 0.00 51 1008.0
20260508230429 50 311 0.9 4.3 0.00 0.00 0.00 49 1007.8
20260508225429 51 300 1.7 7.8 0.00 0.00 0.00 47 1007.7
20260508224429 51 300 3.5 7.8 0.00 0.00 0.00 47 1007.6
20260508223910 53 310 2.6 7.0 0.00 0.00 0.00 48 1007.5
20260508222429 53 312 1.7 4.3 0.00 0.00 0.00 52 1007.4
20260508221428 52 225 1.7 6.1 0.00 0.00 0.00 53 1007.4
20260508220429 51 331 1.7 5.2 0.00 0.00 0.00 56 1007.3
20260508215429 51 325 2.6 7.8 0.00 0.00 0.00 55 1007.4
20260508214429 51 355 5.2 12.2 0.00 0.00 0.00 54 1007.4
20260508213428 52 294 4.3 9.6 0.00 0.00 0.00 52 1007.2
20260508212429 51 290 3.5 8.7 0.00 0.00 0.00 53 1007.1
20260508211429 51 200 2.6 8.7 0.00 0.00 0.00 52 1007.0
20260508210428 51 219 3.5 11.3 0.00 0.00 0.00 52 1006.8
20260508205429 52 194 4.3 11.3 0.00 0.00 0.00 52 1006.7
20260508204429 53 336 3.5 10.4 0.00 0.00 0.00 48 1006.5
20260508203429 53 303 3.5 10.4 0.00 0.00 0.00 46 1006.4
20260508202904 54 294 4.3 9.6 0.00 0.00 0.00 45 1006.3
20260508201429 54 289 3.5 13.9 0.00 0.00 0.00 44 1006.2
20260508200429 54 300 3.5 13.9 0.00 0.00 0.00 49 1006.2
20260508195428 54 259 5.2 12.2 0.00 0.00 0.00 47 1006.1
20260508194918 54 282 3.5 12.2 0.00 0.00 0.00 47 1006.2
20260508193428 53 300 3.5 13.0 0.00 0.00 0.00 52 1006.1
20260508192428 54 285 4.3 13.0 0.00 0.00 0.00 50 1006.0
20260508191428 53 272 2.6 8.7 0.00 0.00 0.00 51 1006.0
20260508190429 53 304 2.6 9.6 0.00 0.00 0.00 51 1006.0
20260508185429 51 263 4.3 13.0 0.00 0.00 0.00 51 1006.2
20260508184429 52 198 5.2 13.0 0.00 0.00 0.00 50 1006.2
20260508183911 53 306 3.5 13.0 0.00 0.00 0.00 51 1006.0
20260508182505 54 305 3.5 10.4 0.00 0.00 0.00 49 1005.8
20260508181501 56 315 3.5 10.4 0.00 0.00 0.00 45 1005.8
20260508180458 56 273 5.2 12.2 0.00 0.00 0.00 47 1005.8
20260508175454 56 288 4.3 13.0 0.00 0.00 0.00 49 1005.8
20260508174450 55 274 4.3 11.3 0.00 0.00 0.00 53 1005.7
20260508173446 53 303 3.5 11.3 0.00 0.00 0.00 46 1005.7
20260508172445 54 250 2.6 10.4 0.00 0.00 0.00 45 1005.6
20260508171443 53 281 1.7 9.6 0.00 0.00 0.00 49 1005.6
20260508170440 53 240 4.3 9.6 0.00 0.00 0.00 46 1005.6
20260508165433 53 263 3.5 10.4 0.00 0.00 0.00 47 1005.8
20260508164430 52 331 4.3 13.9 0.00 0.00 0.00 51 1005.8
20260508163428 52 216 3.5 13.9 0.00 0.00 0.00 48 1005.7
20260508162428 53 329 0.9 4.3 0.00 0.00 0.00 54 1005.8
20260508161926 52 340 3.5 11.3 0.00 0.00 0.00 47 1005.7
20260508160429 52 291 3.5 11.3 0.00 0.00 0.00 45 1005.6
20260508155428 53 290 3.5 6.1 0.00 0.00 0.00 43 1005.6
20260508154429 55 319 1.7 7.0 0.00 0.00 0.00 46 1005.6
20260508154354 56 345 2.6 7.0 0.00 0.00 0.00 44 1005.5
20260508152428 56 262 2.6 7.0 0.00 0.00 0.00 46 1005.6
20260508151904 56 325 3.5 11.3 0.00 0.00 0.00 47 1005.7
20260508150429 54 300 5.2 13.9 0.00 0.00 0.00 49 1005.7
20260508145429 54 317 5.2 13.9 0.00 0.00 0.00 52 1006.0
20260508144428 54 355 2.6 13.9 0.00 0.00 0.00 49 1006.0
20260508143429 53 299 4.3 13.9 0.00 0.00 0.00 51 1006.0
20260508142908 53 181 4.3 12.2 0.00 0.00 0.00 54 1006.1
20260508141429 53 292 4.3 12.2 0.00 0.00 0.00 53 1006.1
20260508140428 53 315 5.2 11.3 0.00 0.00 0.00 53 1006.1
20260508135428 52 285 3.5 9.6 0.00 0.00 0.00 54 1006.1
20260508134428 52 282 2.6 9.6 0.00 0.00 0.00 59 1006.3
20260508133429 51 294 3.5 9.6 0.00 0.00 0.00 56 1006.4
20260508132429 51 284 4.3 13.9 0.00 0.00 0.00 55 1006.4
20260508131907 51 355 3.5 12.2 0.00 0.00 0.00 54 1006.4
20260508130429 49 297 2.6 8.7 0.00 0.00 0.00 61 1006.4
20260508125428 49 258 4.3 9.6 0.00 0.00 0.00 59 1006.5
20260508124428 48 294 3.5 9.6 0.00 0.00 0.00 63 1006.6
20260508123911 47 311 2.6 7.8 0.00 0.00 0.00 63 1006.6
20260508122907 47 288 2.6 7.8 0.00 0.00 0.00 61 1006.6
20260508122046 46 186 2.6 7.8 0.00 0.00 0.00 64 1006.5
20260508115429 46 251 2.6 7.8 0.00 0.00 0.00 64 1006.6
20260508114428 45 311 2.6 7.8 0.00 0.00 0.00 65 1006.6
20260508113429 44 285 1.7 5.2 0.00 0.00 0.00 67 1006.6
20260508112428 43 253 1.7 5.2 0.00 0.00 0.00 70 1006.6
20260508111428 42 275 0.9 3.5 0.00 0.00 0.00 70 1006.6
20260508110429 42 240 0.9 4.3 0.00 0.00 0.00 72 1006.5
20260508105429 42 232 1.7 4.3 0.00 0.00 0.00 71 1006.4
20260508104428 41 232 0.9 4.3 0.00 0.00 0.00 72 1006.4
20260508103428 40 278 0.9 4.3 0.00 0.00 0.00 74 1006.2
20260508102429 40 303 1.7 5.2 0.00 0.00 0.00 75 1006.0
20260508101913 39 233 1.7 5.2 0.00 0.00 0.00 76 1005.9
20260508100904 38 274 1.7 3.5 0.00 0.00 0.00 78 1005.7
20260508095429 37 259 0.9 3.5 0.00 0.00 0.00 78 1005.5
20260508094428 37 241 0.9 4.3 0.00 0.00 0.00 78 1005.5
20260508093428 36 253 0.9 4.3 0.00 0.00 0.00 79 1005.2
20260508092429 36 276 0.9 3.5 0.00 0.00 0.00 79 1005.1
20260508091429 35 319 0.9 3.5 0.00 0.00 0.00 79 1005.0
20260508090611 35 244 0.0 3.5 0.00 0.00 0.00 78 1004.9
20260508084912 35 232 0.9 2.6 0.00 0.00 0.00 79 1004.8
20260508083428 34 249 0.9 2.6 0.00 0.00 0.00 79 1004.7
20260508082430 34 261 0.9 4.3 0.00 0.00 0.00 79 1004.5
20260508081428 35 331 0.9 4.3 0.00 0.01 0.00 79 1004.5
20260508080428 34 281 0.9 2.6 0.00 0.01 0.00 79 1004.5
20260508075428 35 255 0.0 1.7 0.00 0.01 0.00 79 1004.5
20260508074428 35 255 0.0 1.7 0.00 0.01 0.00 78 1004.5
20260508073428 35 255 0.0 1.7 0.00 0.01 0.00 78 1004.5
20260508072430 35 255 0.0 1.7 0.00 0.01 0.00 78 1004.7
20260508071429 35 255 0.0 0.9 0.00 0.01 0.00 77 1004.7
20260508070428 35 255 0.0 0.9 0.00 0.01 0.00 78 1004.8
20260508065430 35 255 0.0 0.9 0.00 0.01 0.00 79 1004.8
20260508064430 34 255 0.0 1.7 0.00 0.01 0.00 79 1004.9
20260508063428 34 255 0.0 1.7 0.00 0.01 0.00 79 1004.9
20260508062429 35 257 0.0 1.7 0.00 0.01 0.00 78 1005.1
20260508061908 35 290 0.0 1.7 0.00 0.01 0.00 77 1005.1
20260508060428 36 290 0.0 1.7 0.00 0.01 0.00 76 1005.3
20260508055429 37 302 0.0 0.9 0.00 0.01 0.00 73 1005.5
20260508054429 38 205 0.0 0.0 0.00 0.01 0.00 71 1005.6
20260508053429 38 205 0.0 1.7 0.00 0.01 0.00 71 1005.7
20260508052428 38 205 0.0 1.7 0.00 0.01 0.00 71 1005.8
20260508052357 38 205 0.9 2.6 0.00 0.01 0.00 70 1005.8